Regional Weather Roundup
Issued by NWS

Home | Current Version | Previous Version | Graphics & Text | Print | Product List | Glossary On
Versions: 1 2 3 4 5 6 7 8 9 10 11 12 13 14 15 16 17 18 19 20 21 22 23 24 25 26 27 28 29 30 31 32 33 34 35 36 37 38 39 40 41 42 43 44 45 46 47 48 49 50
000
ASUS45 KCYS 280510
RWRWY

WYOMING REGIONAL WEATHER ROUNDUP
NATIONAL WEATHER SERVICE CHEYENNE WY
1000 PM MST SAT DEC 27 2014

NOTE:  "FAIR" INDICATES FEW OR NO CLOUDS BELOW 12,000 FEET
WITH NO SIGNIFICANT WEATHER AND/OR OBSTRUCTIONS TO VISIBILITY.

WYZ001-280600-
YELLOWSTONE NATIONAL PARK

CITY           SKY/WX    TMP DP  RH WIND       PRES   REMARKS
LK YELLOWSTONE   N/A     10   7  87 CALM      29.98F
W YELLOWSTONE  NOT AVBL

$$
WYZ002>013-054>058-071-098>099-280600-
NORTHERN WYOMING

CITY           SKY/WX    TMP DP  RH WIND       PRES   REMARKS
JACKSON        CLOUDY    16  14  93 SW8       30.06S WCI   5
CODY           FAIR      27   7  43 W16G23    29.92R WCI  14
GREYBULL       FAIR       0  -3  87 N3        30.04F
WORLAND        FAIR     -12 -16  82 SE3       30.01F
SHERIDAN       FAIR       8   0  69 N5        29.93F WCI   0
BUFFALO        FAIR      14   1  56 SW3       29.92F
GILLETTE       FAIR      16   5  62 SW18      29.95F WCI   0
HULETT           N/A    N/A N/A N/A MISG        N/A
NEWCASTLE      FAIR      10   5  79 CALM      30.02S

$$
WYZ014>020-022>026-101>103-280600-
CENTRAL WYOMING

CITY           SKY/WX    TMP DP  RH WIND       PRES   REMARKS
BIG PINEY      FAIR      -9 -14  78 N6        30.08F WCI -22
PINEDALE       FAIR      -6  -8  92 CALM      30.08F
DUBOIS         NOT AVBL
LANDER         FAIR       7  -1  70 S3        29.97F
RIVERTON       FAIR       5  -2  72 SW9       29.98F WCI  -9
CASPER         FAIR      16   7  67 SW16      30.00F WCI   1
DOUGLAS        FAIR      11   4  73 N3        30.01F

$$
WYZ021-027>030-104>119-280600-
SOUTHERN WYOMING

CITY           SKY/WX    TMP DP  RH WIND       PRES   REMARKS
EVANSTON       CLOUDY    12   5  73 SW12      30.11F WCI  -2
FORT BRIDGER   CLOUDY    18   6  60 W18G28    30.12F WCI   2
ROCK SPRINGS   MOCLDY    14   6  70 SW10      30.10F WCI   1
DIXON          FAIR       9   2  74 S7        30.19F WCI  -2
RAWLINS        MOCLDY    12   4  70 W25G35    30.05S WCI  -8
SARATOGA       CLOUDY     9   1  72 E3        30.07F
LARAMIE        FAIR      11   0  61 SW28G35   29.97F WCI -10
CHEYENNE       FAIR      19   1  45 W20       29.99F WCI   3
TORRINGTON     FAIR      20   7  57 CALM      30.05S
PINE BLUFFS    FAIR       3  -4  72 MISG      30.05F

$$


USA.gov is the U.S. government's official web portal to all federal, state and local government web resources and services.